Powrót do katalogu

STARLINK-37101

AktywnyŁącznośćVLEO
NORAD 68234·PAYLOAD·🇺🇸 United States

Wystrzelony Mar 17, 2026 z Vandenberg Space Force Base

Loading…

Następne Przeloty (najbliższe 24 godziny)

TLE

ŚwieżeSource: CelesTrak SupGP

Epoka: Sep 14, 2026, 22:53 UTC

1 68234C 26054C   26257.95395833 -.00053528  00000+0 -15815-2 0  2570
2 68234  53.1564 127.9068 0001207  90.7730  68.2872 15.34416075    18

Śledź STARLINK-37101 w czasie rzeczywistym z AllMySat

Download on the App Store